Flag for Greece Weather past 2 weeks in Preveza, Greece

Now
63 °F

Passing clouds.


Feels Like: 63 °F
Forecast: 54 / 71 °F
Wind: 9 mph from West

Location: Aktion Airport

Current Time: Apr 26, 2015 at 8:30:51 PM

Latest Report: Apr 26, 2015 at 7:50 PM


Visibility: N/A

Pressure: 29.98 "Hg

Humidity: 77%

Dew point: 55 °F

Location of PrevezaLocation

Historic Weather in Preveza — Graph

°F

Preveza temperature yesterday

Maximum temperature yesterday: 70 °F (at 3:50 PM)
Minimum temperature yesterday: 54 °F (at 2:50 AM)
Average temperature yesterday: 61 °F

Past Weeks' High & Low Weather Summary

 TemperatureHumidityPressure
High73 °F (Apr 18, 2:50 PM)94% (Apr 12, 6:50 AM)30.36 "Hg (Apr 12, 6:50 AM)
Low48 °F (Apr 12, 2:50 AM)33% (Apr 23, 12:50 PM)29.89 "Hg (Apr 18, 7:20 PM)
Average61 °F72%30.12 "Hg
* Reported Apr 11 7:20 PM — Apr 26 7:20 PM, Preveza, Weather by CustomWeather, © 2015

Note: Actual official high and low records may vary slightly from our data, if they occured in-between our weather recording intervals... More about our weather records

Advertising

Preveza weather history for previous 24 hours

 ConditionsComfort  
Time TempWeatherWind HumidityBarometerVisibility
7:20 PM
Sun, Apr 26
64 °FPassing clouds.9 mph78%29.98 "HgN/A
6:50 PM66 °FPassing clouds.10 mph73%29.98 "HgN/A
6:20 PM68 °FPassing clouds.10 mph73%29.98 "HgN/A
5:50 PM66 °FPassing clouds.12 mph78%29.98 "HgN/A
5:20 PM68 °FPassing clouds.13 mph73%29.98 "HgN/A
4:50 PM68 °FPassing clouds.10 mph69%29.98 "HgN/A
4:20 PM68 °FPassing clouds.9 mph69%29.98 "HgN/A
3:50 PM70 °FPassing clouds.9 mph64%29.98 "HgN/A
3:20 PM70 °FPassing clouds.10 mph64%30.01 "HgN/A
2:50 PM68 °FScattered clouds.9 mph69%30.01 "HgN/A
2:20 PM70 °FPassing clouds.9 mph60%30.01 "HgN/A
1:50 PM70 °FPassing clouds.9 mph64%30.01 "HgN/A
1:20 PM70 °FSunny.8 mph64%30.01 "Hg10 mi
12:50 PM68 °FSunny.9 mph64%30.01 "Hg10 mi
12:20 PM68 °FSunny.8 mph64%30.01 "Hg10 mi
11:50 AM70 °FSunny.6 mph60%30.04 "Hg10 mi
11:20 AM68 °FSunny.3 mph60%30.04 "Hg10 mi
10:50 AM66 °FSunny.3 mph56%30.04 "Hg10 mi
10:20 AM64 °FSunny.5 mph64%30.04 "Hg10 mi
9:50 AM63 °FSunny.5 mph73%30.04 "Hg10 mi
9:20 AM63 °FPassing clouds.8 mph73%30.01 "HgN/A
8:50 AM61 °FPassing clouds.9 mph68%30.01 "HgN/A
8:20 AM59 °FPassing clouds.8 mph77%30.01 "HgN/A
7:50 AM57 °FPassing clouds.8 mph82%30.01 "HgN/A
7:20 AM55 °FPassing clouds.7 mph88%30.01 "HgN/A
6:50 AM55 °FPassing clouds.7 mph82%30.01 "HgN/A
5:50 AM57 °FPassing clouds.8 mph88%29.98 "HgN/A
4:50 AM57 °FPassing clouds.7 mph82%30.01 "HgN/A
3:50 AM57 °FPassing clouds.5 mph88%30.01 "HgN/A
2:50 AM55 °FPassing clouds.5 mph88%30.01 "HgN/A
1:50 AM54 °FPassing clouds.No wind88%30.04 "HgN/A
12:50 AM59 °FPassing clouds.6 mph82%30.04 "HgN/A
11:50 PM
Sat, Apr 25
57 °FPassing clouds.No wind88%30.04 "HgN/A
10:50 PM57 °FPassing clouds.6 mph82%30.04 "HgN/A
9:50 PM57 °FPassing clouds.No wind82%30.04 "HgN/A
8:50 PM59 °FPassing clouds.8 mph82%30.04 "HgN/A
8:20 PM59 °FPassing clouds.6 mph77%30.04 "HgN/A
Weather by CustomWeather, © 2015

See weather overviewHow to use our weather pages